Snowfall_Accumulation
0.0 0.0 0.0 0.0 0.0 0.0 0.0 0.0 6.9 0.0 0.0 4.0 2.1 1.8 0.0 0.0 0.1 0.0 0.6 1.2 2.3 6.0 3.4 4.7 4.4 1.3 1.5 0.0 0.0 0.0 0.0 4.3 6.0 0.6 0.0 0.0 0.0 0.0 0.0 3.3 1.6 1.3 6.6 15.2
0.0 0.0 0.0 0.0 0.0 0.0 0.0 0.5 0.0 0.0 0.0 5.5 2.8 0.4 0.0 0.0 0.0 0.0 0.6 1.2 1.7 2.9 6.7 10.1 8.0 1.6 0.0 0.0 0.0 0.0 0.0 2.7 1.5 1.7 0.0 0.0 0.0 0.0 0.0 0.2 1.1 5.1 13.5 13.6
0.0 0.0 0.0 0.0 0.0 0.0 0.0 6.5 12.8 0.0 0.0 1.0 0.7 0.6 0.1 0.0 0.0 0.0 0.0 1.0 2.3 3.7 5.0 3.8 6.9 1.6 0.0 0.0 0.0 0.0 0.0 0.1 1.0 3.5 3.4 1.3 1.4 0.2 0.0 0.4 5.8 6.3 7.6 7.8
0.0 0.0 0.0 0.0 0.0 0.0 0.0 9.0 7.3 0.2 7.5 2.0 0.7 0.7 0.6 0.6 0.9 0.0 0.3 2.8 1.5 2.7 6.1 3.3 3.9 1.7 0.0 0.0 0.0 0.0 0.0 0.8 3.0 1.9 1.9 0.7 3.1 1.7 2.8 2.5 1.9 5.0 6.6 3.2
0.0 0.0 0.0 0.0 0.0 0.0 0.0 24.2 2.2 0.0 0.3 0.3 1.7 1.9 0.7 0.2 0.8 2.9 1.9 0.4 0.1 0.2 0.5 1.4 2.2 1.1 0.2 0.5 0.0 0.0 0.0 1.3 3.9 11.3 2.6 0.7 4.9 4.7 3.0 1.8 1.7 2.2 0.7 1.9
0.0 0.0 0.0 0.0 0.0 0.0 0.0 0.0 0.0 0.1 0.2 0.0 1.4 2.7 2.1 1.0 0.7 0.3 0.1 0.0 0.0 0.0 0.0 0.0 0.0 0.0 0.0 0.0 0.0 0.0 0.0 0.1 0.7 4.7 2.4 0.3 4.2 4.3 1.6 1.1 0.9 0.4 0.7 0.8
0.0 0.0 0.0 0.0 0.0 0.0 0.0 0.0 0.0 1.5 3.8 0.6 0.0 0.0 0.0 0.0 0.0 0.0 0.0 0.0 0.0 0.0 0.0 0.0 0.0 0.0 0.0 0.0 0.0 0.0 0.0 0.0 0.0 1.0 0.4 5.5 6.9 0.9 0.2 0.2 0.5 0.4 0.1 0.9
0.0 0.0 0.0 0.0 0.0 0.0 0.0 0.0 0.0 0.2 2.3 0.4 0.1 0.0 0.0 0.0 0.0 0.0 0.0 0.0 0.0 0.0 0.0 0.2 0.0 0.0 0.0 0.0 0.0 0.0 0.0 0.0 1.4 1.2 0.6 2.6 0.8 0.3 0.2 0.1 0.9 0.4 0.5 0.5
0.0 0.0 0.0 0.0 0.0 0.0 0.0 0.0 0.0 0.0 2.0 0.5 0.0 0.0 0.0 0.0 0.0 0.1 0.0 0.0 0.0 0.0 0.8 0.7 1.0 0.6 0.0 0.0 0.0 0.0 0.0 0.0 0.1 1.9 1.2 2.8 0.3 0.0 0.0 0.0 1.3 0.3 0.2 0.2
0.0 0.0 0.0 0.0 0.0 0.0 0.0 0.0 0.0 0.0 5.7 0.0 0.0 0.0 0.1 0.0 0.0 0.3 0.0 0.0 0.0 0.0 1.2 1.8 0.6 0.3 0.0 1.2 1.2 0.5 0.6 0.1 0.6 1.7 1.9 0.0 0.0 0.1 0.0 0.6 2.3 0.4 0.1 0.0
0.0 0.0 0.0 0.0 0.0 0.0 0.0 0.0 0.0 0.0 5.5 0.0 0.0 0.0 0.0 0.0 0.1 1.2 0.0 1.2 1.0 1.0 1.6 0.7 0.1 0.3 0.0 0.4 0.0 0.2 0.2 1.3 0.7 1.9 3.1 1.4 0.0 0.0 0.0 1.0 0.5 0.3 0.2 0.1
0.0 0.0 0.0 0.0 0.0 0.0 0.0 0.0 0.0 0.0 0.1 0.0 0.0 0.0 0.0 0.0 0.0 0.0 0.0 0.0 0.4 0.4 1.8 0.8 0.2 0.1 0.4 0.0 2.8 0.0 2.4 0.4 0.5 0.2 1.3 1.1 0.3 0.5 0.3 0.0 0.3 0.4 0.2 0.3
0.0 0.0 0.0 0.0 0.0 0.0 0.0 0.0 0.0 0.0 2.9 0.0 0.0 0.0 0.0 0.0 0.0 0.0 0.2 0.0 0.0 0.7 0.0 1.8 1.4 1.6 0.1 0.7 0.6 1.1 1.1 0.0 1.8 1.6 2.8 1.4 0.5 0.3 0.2 0.2 0.5 0.7 0.6 0.3
0.0 0.0 0.0 0.0 0.0 0.0 0.0 0.0 0.0 0.0 0.1 4.5 0.2 0.0 0.0 0.0 0.0 0.0 0.0 0.0 0.0 0.0 0.0 0.6 0.1 0.6 0.0 0.2 0.5 1.3 0.9 1.2 5.2 4.5 2.6 1.1 0.8 0.7 0.7 0.9 0.5 0.3 1.2 1.2
0.0 0.0 0.0 0.0 0.0 0.0 0.0 0.0 0.0 0.0 0.0 1.5 0.4 0.0 0.0 0.0 0.0 0.0 0.0 0.0 0.0 0.0 0.5 0.7 0.2 0.0 0.0 0.0 0.8 1.9 0.7 2.9 6.2 12.4 6.3 3.3 3.5 1.5 1.1 1.4 2.1 1.3 0.5 0.0
0.0 0.0 0.0 0.0 0.0 0.0 0.0 16.4 0.0 0.0 0.0 2.1 2.4 0.0 0.0 0.0 0.0 0.0 0.0 0.0 0.0 0.0 0.1 0.2 0.0 0.0 0.0 3.6 5.3 1.9 1.0 0.9 2.1 4.3 4.3 4.9 3.7 2.5 1.6 1.4 0.8 0.0 0.0 0.0
0.0 0.0 0.0 0.0 0.0 0.0 0.0 1.2 0.0 0.0 0.0 3.1 6.2 0.2 0.0 0.0 0.0 0.0 0.0 0.0 0.0 0.0 0.0 0.1 0.0 0.0 0.0 5.2 7.7 3.4 2.0 2.2 2.5 2.6 2.4 2.5 1.7 1.2 0.4 0.0 0.0 0.0 0.0 0.0
0.0 0.0 0.0 0.0 0.0 0.0 0.0 0.0 0.0 0.0 0.0 0.2 6.0 5.2 1.2 0.0 0.0 0.8 0.0 0.0 0.0 0.0 0.1 0.2 0.0 0.2 0.5 4.3 0.5 0.0 0.2 0.4 1.0 1.2 0.4 0.9 0.5 0.0 0.0 0.0 0.0 0.0 0.0 0.1
0.0 0.0 0.0 0.0 0.0 0.3 0.0 0.0 0.0 0.0 0.0 2.7 2.6 5.9 11.5 0.0 0.0 0.0 0.8 0.0 4.4 0.0 1.6 0.5 0.2 1.5 8.8 5.1 0.6 0.0 0.0 0.0 0.0 0.0 0.1 0.0 0.3 0.0 0.0 0.0 0.0 0.2 1.8 1.2
0.0 0.0 0.1 30.2 1.5 0.0 0.0 0.0 2.7 2.9 1.2 0.8 2.1 0.7 3.2 0.0 0.4 0.9 0.6 0.7 1.3 3.3 0.9 0.0 2.7 7.6 4.1 1.2 0.2 0.0 0.0 0.0 0.0 0.0 0.0 0.0 0.3 0.4 0.3 0.9 1.1 1.7 1.5 0.8
0.0 9.1 8.9 0.0 0.0 0.0 1.1 16.5 9.6 4.7 3.6 0.4 0.4 0.0 4.9 1.0 5.4 1.3 0.0 2.9 1.5 3.5 1.2 3.1 6.1 5.2 3.9 1.5 0.7 0.1 0.0 0.0 0.0 0.0 0.0 0.1 0.4 1.0 2.2 1.6 0.1 0.1 1.0 1.4
0.0 0.0 0.0 0.0 2.0 6.6 14.4 12.4 5.2 1.8 2.6 0.8 0.8 1.0 0.4 4.3 1.0 3.5 5.0 7.0 5.0 5.0 2.6 5.3 8.7 5.8 0.8 0.1 0.2 0.2 0.1 0.0 0.1 0.3 0.4 0.5 0.9 0.7 1.3 1.2 1.6 1.8 1.9 2.7
0.0 0.8 6.8 10.7 17.4 22.7 14.9 10.6 4.8 3.1 3.6 1.1 0.9 1.6 0.6 1.6 2.7 10.4 5.3 6.4 13.4 3.7 10.7 10.7 6.5 2.9 0.8 0.9 0.1 0.2 0.2 0.2 0.3 0.5 0.4 0.5 0.8 0.8 0.8 1.4 1.9 2.1 3.3 5.1
4.8 14.9 21.0 18.6 15.8 9.4 8.6 4.6 2.8 2.7 2.2 1.3 3.2 1.0 1.3 1.7 7.7 11.6 12.8 12.5 9.7 18.2 11.9 8.8 6.5 5.9 4.9 3.1 2.5 1.6 3.4 2.4 2.5 2.8 3.0 3.2 4.4 4.7 6.4 7.5 8.8 8.4 11.9 15.3
10.1 9.2 13.9 11.1 10.6 8.4 6.8 5.2 3.2 2.2 2.2 2.2 3.1 2.5 2.9 6.9 11.8 8.9 8.7 10.0 11.4 8.6 9.9 7.9 7.3 6.6 4.9 4.5 4.8 5.2 6.0 6.2 6.8 7.0 7.3 8.7 9.0 8.3 11.0 11.7 11.6 10.1 11.0 11.6
5.3 7.0 11.3 8.1 6.8 9.2 7.1 6.7 6.6 3.4 4.4 3.7 3.7 5.0 6.8 9.3 7.6 4.9 7.0 5.5 8.8 9.9 8.0 5.8 5.2 5.7 6.1 6.8 6.9 7.8 8.0 7.5 7.5 7.8 7.4 7.8 8.6 8.1 9.2 9.4 9.1 9.7 7.9 8.4
4.6 9.8 9.4 9.2 7.5 9.8 9.2 7.5 5.9 3.1 3.0 5.6 4.5 5.3 6.9 2.9 3.6 7.2 6.6 9.9 9.7 8.0 9.3 9.5 8.4 8.8 9.7 9.1 9.3 9.9 9.3 8.6 8.2 7.9 7.7 8.2 8.0 6.1 4.3 6.2 8.7 6.7 6.5 6.0